Change the Weather History Date:

Friday, May 31, 2013

  Actual Average Record
Temperature  
Mean Temperature 68 °F -  
Max Temperature 78 °F 67 °F 83 °F (1987)
Min Temperature 59 °F 54 °F 37 °F (1961)
Cooling Degree Days 4    
Growing Degree Days 18 (Base 50)    
Moisture  
Dew Point 59 °F    
Average Humidity 74    
Maximum Humidity 88    
Minimum Humidity 61    
Precipitation  
Precipitation 0.00 in - - ()
Sea Level Pressure  
Sea Level Pressure 30.08 in    
Wind  
Wind Speed 12 mph (WSW)    
Max Wind Speed 23 mph    
Max Gust Speed 29 mph    
Visibility 10 miles    
Events      
Averages and records for this station are not official NWS values.
T = Trace of Precipitation, MM = Missing Value Source: NWS Daily Summary

Daily Weather History Graph

Daily Weather History Graph

Search for Another Location

Airport or City:

Trip Planner

Search our weather history database for the weather conditions in past years. The results will help you decide how hot, cold, wet, or windy it might be!

Date:

Astronomy

May. 31, 2013 Rise Set
Actual Time 5:16 AM EDT 8:12 PM EDT
Civil Twilight 4:43 AM EDT 8:45 PM EDT
Nautical Twilight 4:01 AM EDT 9:26 PM EDT
Astronomical Twilight 3:13 AM EDT 10:15 PM EDT
Moon 12:42 AM EDT (5/31) 12:31 PM EDT (5/31)
Length of Visible Light 16h 01m
Length of Day
14h 55m
Waning Gibbous, 51% of the Moon is Illuminated
May 31
Waning Gibbous
May 31
Last Quarter
Jun 8
New
Jun 16
First Quarter
Jun 23
Full

Hourly Weather History & Observations

Time (EDT) Temp. Dew Point Humidity Pressure Visibility Wind Dir Wind Speed Gust Speed Precip Events Conditions
12:15 AM 60.8 °F 55.4 °F 82% 30.10 in 10.0 mi WSW 15.0 mph - N/A   Scattered Clouds
12:35 AM 60.8 °F 55.4 °F 82% 30.10 in 10.0 mi WSW 13.8 mph - N/A   Mostly Cloudy
12:55 AM 60.8 °F 55.4 °F 82% 30.10 in 10.0 mi WSW 13.8 mph - N/A   Partly Cloudy
1:15 AM 60.8 °F 55.4 °F 82% 30.09 in 10.0 mi WSW 13.8 mph - N/A   Clear
1:35 AM 60.8 °F 55.4 °F 82% 30.09 in 10.0 mi WSW 12.7 mph - N/A   Clear
1:55 AM 60.8 °F 55.4 °F 82% 30.10 in 10.0 mi WSW 12.7 mph - N/A   Clear
2:15 AM 60.8 °F 55.4 °F 82% 30.09 in 10.0 mi WSW 12.7 mph - N/A   Clear
2:55 AM 60.8 °F 55.4 °F 82% 30.09 in 10.0 mi WSW 11.5 mph - N/A   Clear
3:15 AM 60.8 °F 55.4 °F 82% 30.08 in 10.0 mi WSW 10.4 mph - N/A   Clear
3:35 AM 60.8 °F 55.4 °F 82% 30.09 in 10.0 mi WSW 12.7 mph - N/A   Clear
3:55 AM 60.8 °F 55.4 °F 82% 30.09 in 10.0 mi West 6.9 mph - N/A   Clear
4:15 AM 59.0 °F 55.4 °F 88% 30.09 in 10.0 mi WSW 9.2 mph - N/A   Clear
4:35 AM 60.8 °F 55.4 °F 82% 30.10 in 10.0 mi Calm Calm - N/A   Clear
4:55 AM 60.8 °F 57.2 °F 88% 30.10 in 10.0 mi Calm Calm - N/A   Clear
5:15 AM 62.6 °F 57.2 °F 82% 30.10 in 10.0 mi WSW 5.8 mph - N/A   Clear
5:35 AM 62.6 °F 57.2 °F 82% 30.10 in 10.0 mi West 6.9 mph - N/A   Scattered Clouds
6:15 AM 62.6 °F 57.2 °F 82% 30.11 in 10.0 mi WSW 6.9 mph - N/A   Clear
6:35 AM 62.6 °F 57.2 °F 82% 30.11 in 10.0 mi WSW 8.1 mph - N/A   Clear
6:55 AM 64.4 °F 59.0 °F 83% 30.12 in 10.0 mi West 9.2 mph - N/A   Clear
7:15 AM 66.2 °F 60.8 °F 83% 30.12 in 10.0 mi West 6.9 mph - N/A   Clear
7:35 AM 69.8 °F 60.8 °F 73% 30.12 in 10.0 mi West 6.9 mph - N/A   Clear
7:55 AM 69.8 °F 60.8 °F 73% 30.13 in 10.0 mi West 6.9 mph - N/A   Clear
8:15 AM 71.6 °F 62.6 °F 73% 30.13 in 10.0 mi West 8.1 mph - N/A   Clear
8:35 AM 71.6 °F 62.6 °F 73% 30.14 in 10.0 mi West 8.1 mph - N/A   Clear
8:55 AM 71.6 °F 62.6 °F 73% 30.13 in 10.0 mi West 6.9 mph - N/A   Clear
9:15 AM 73.4 °F 62.6 °F 69% 30.13 in 10.0 mi West 5.8 mph - N/A   Clear
9:35 AM 75.2 °F 64.4 °F 69% 30.12 in 10.0 mi WSW 6.9 mph - N/A   Clear
9:55 AM 77.0 °F 64.4 °F 65% 30.12 in 10.0 mi WSW 6.9 mph - N/A   Clear
10:15 AM 78.8 °F 64.4 °F 61% 30.12 in 10.0 mi WSW 8.1 mph - N/A   Clear
10:35 AM 78.8 °F 64.4 °F 61% 30.12 in 10.0 mi WSW 6.9 mph - N/A   Clear
10:55 AM 78.8 °F 64.4 °F 61% 30.12 in 10.0 mi WSW 8.1 mph - N/A   Clear
11:15 AM 78.8 °F 64.4 °F 61% 30.12 in 10.0 mi WSW 6.9 mph - N/A   Clear
11:35 AM 75.2 °F 62.6 °F 65% 30.12 in 10.0 mi SW 6.9 mph - N/A   Clear
11:55 AM 75.2 °F 64.4 °F 69% 30.11 in 10.0 mi SW 10.4 mph - N/A   Clear
12:15 PM 75.2 °F 64.4 °F 69% 30.11 in 10.0 mi SW 12.7 mph - N/A   Clear
12:55 PM 77.0 °F 64.4 °F 65% 30.10 in 10.0 mi SW 12.7 mph - N/A   Clear
1:15 PM 78.8 °F 64.4 °F 61% 30.09 in 10.0 mi SW 10.4 mph - N/A   Clear
1:35 PM 77.0 °F 62.6 °F 61% 30.09 in 10.0 mi WSW 12.7 mph - N/A   Clear
1:55 PM 75.2 °F 64.4 °F 69% 30.08 in 10.0 mi SW 11.5 mph - N/A   Clear
2:15 PM 73.4 °F 62.6 °F 69% 30.08 in 10.0 mi SW 13.8 mph - N/A   Clear
2:35 PM 73.4 °F 62.6 °F 69% 30.08 in 10.0 mi SW 12.7 mph - N/A   Clear
2:55 PM 73.4 °F 62.6 °F 69% 30.08 in 10.0 mi SW 15.0 mph - N/A   Clear
3:15 PM 73.4 °F 64.4 °F 73% 30.07 in 10.0 mi SW 16.1 mph 21.9 mph N/A   Clear
3:35 PM 73.4 °F 62.6 °F 69% 30.07 in 10.0 mi SW 16.1 mph - N/A   Clear
3:55 PM 75.2 °F 62.6 °F 65% 30.06 in 10.0 mi WSW 18.4 mph - N/A   Clear
4:15 PM 71.6 °F 60.8 °F 69% 30.06 in 10.0 mi WSW 18.4 mph 23.0 mph N/A   Clear
4:35 PM 73.4 °F 62.6 °F 69% 30.05 in 10.0 mi WSW 19.6 mph 25.3 mph N/A   Clear
4:55 PM 71.6 °F 62.6 °F 73% 30.05 in 10.0 mi WSW 21.9 mph 26.5 mph N/A   Clear
5:15 PM 71.6 °F 60.8 °F 69% 30.05 in 10.0 mi WSW 21.9 mph 26.5 mph N/A   Clear
5:35 PM 69.8 °F 60.8 °F 73% 30.04 in 10.0 mi WSW 19.6 mph 26.5 mph N/A   Clear
5:55 PM 69.8 °F 59.0 °F 68% 30.04 in 10.0 mi WSW 23.0 mph 26.5 mph N/A   Clear
6:15 PM 69.8 °F 57.2 °F 64% 30.03 in 10.0 mi WSW 20.7 mph 27.6 mph N/A   Clear
6:35 PM 68.0 °F 57.2 °F 68% 30.03 in 10.0 mi WSW 20.7 mph 28.8 mph N/A   Clear
6:55 PM 68.0 °F 57.2 °F 68% 30.03 in 10.0 mi WSW 21.9 mph 28.8 mph N/A   Clear
7:15 PM 66.2 °F 57.2 °F 73% 30.03 in 10.0 mi WSW 19.6 mph 26.5 mph N/A   Clear
7:35 PM 66.2 °F 57.2 °F 73% 30.02 in 10.0 mi SW 19.6 mph 28.8 mph N/A   Clear
7:55 PM 64.4 °F 57.2 °F 77% 30.02 in 10.0 mi SW 19.6 mph 26.5 mph N/A   Clear
8:15 PM 64.4 °F 57.2 °F 77% 30.02 in 10.0 mi SW 18.4 mph 26.5 mph N/A   Clear
8:35 PM 62.6 °F 55.4 °F 77% 30.03 in 10.0 mi SW 17.3 mph - N/A   Clear
8:55 PM 62.6 °F 55.4 °F 77% 30.02 in 10.0 mi SW 18.4 mph 23.0 mph N/A   Clear
9:15 PM 62.6 °F 55.4 °F 77% 30.03 in 10.0 mi SW 17.3 mph - N/A   Clear
9:35 PM 62.6 °F 55.4 °F 77% 30.04 in 10.0 mi WSW 15.0 mph - N/A   Clear
9:55 PM 60.8 °F 55.4 °F 82% 30.04 in 10.0 mi WSW 15.0 mph - N/A   Clear
10:15 PM 62.6 °F 55.4 °F 77% 30.04 in 10.0 mi WSW 17.3 mph - N/A   Clear
10:35 PM 62.6 °F 57.2 °F 82% 30.04 in 10.0 mi WSW 16.1 mph 23.0 mph N/A   Clear
10:55 PM 62.6 °F 55.4 °F 77% 30.04 in 10.0 mi WSW 16.1 mph - N/A   Clear
11:15 PM 62.6 °F 57.2 °F 82% 30.04 in 10.0 mi WSW 18.4 mph - N/A   Clear
11:35 PM 62.6 °F 57.2 °F 82% 30.04 in 10.0 mi WSW 16.1 mph - N/A   Clear
11:55 PM 62.6 °F 57.2 °F 82% 30.04 in 10.0 mi SW 16.1 mph 20.7 mph N/A   Clear